Regional Weather Roundup
Issued by NWS Grand Forks, ND

Home | Current Version | Previous Version | Text Only | Print | Product List | Glossary On
Versions: 1 2 3 4 5 6 7 8 9 10 11 12 13 14 15 16 17 18 19 20 21 22 23 24 25 26 27 28 29 30 31 32 33 34 35 36 37 38 39 40 41 42 43 44 45 46 47 48 49 50
000
ASUS43 KFGF 252031
RWRFGF
PRAIRIE TO PINES  WEATHER ROUNDUP
NATIONAL WEATHER SERVICE EASTERN NORTH DAKOTA/GRAND FORKS ND
200 PM CST THU DEC 25 2014

 **SATELLITE DATA USED TO AUGMENT SKY COVER AT AUTOMATED STATIONS**
 *****  WEATHER ACROSS EASTERN NORTH DAKOTA  *****

CITY           SKY/WX    TMP DP  RH WIND       PRES   REMARKS
GRAND FORKS    CLOUDY    28  23  81 N12       29.79R WCI  18
GRAND FRKS AFB CLOUDY    28  27  93 N9        29.81R WCI  20
GRAND FRKS NWS   N/A     28 N/A N/A N16         N/A  WCI  17
DEVILS LAKE    CLOUDY    27  21  80 N8        29.79R WCI  18
FARGO          CLOUDY    30  25  81 NW12      29.79R WCI  20
WAHPETON ARPT  CLOUDY    30  25  80 N10       29.78S WCI  21
$$

 ***** WEATHER ACROSS CENTRAL AND WESTERN NORTH DAKOTA  *****

CITY           SKY/WX    TMP DP  RH WIND       PRES   REMARKS
BISMARCK       CLOUDY    28  21  75 NW14      29.83R WCI  17
MINOT          CLOUDY    28  22  78 NW17      29.81R WCI  16
JAMESTOWN      CLOUDY    28  22  78 NW12      29.78R WCI  18
MINOT AFB      CLOUDY    26  26  98 NW17      29.81R WCI  14
GARRISON         N/A     28  22  78 NW17      29.81R WCI  16
WILLISTON      CLOUDY    26  19  74 NW16      29.88R WCI  14
DICKINSON      CLOUDY    24  18  77 NW20      29.81R WCI  10
HETTINGER      CLOUDY    25  20  81 N16G25    29.82R WCI  12
$$

 *****  OTHER AIRPORT OBSERVATIONS IN OUR AREA  *****

CITY           SKY/WX    TMP DP  RH WIND       PRES   REMARKS
WALHALLA         N/A     27  27 100 NW10      29.82R WCI  17
GRAFTON AIRPOR NOT AVBL
VALLEY CITY AR MIX PCPN  27  27 100 NW12      29.79R WCI  16
CANDO          CLOUDY    27  23  86 N12       29.81R WCI  16
CAVALIER APRT  CLOUDY    27  25  93 NW10      29.81R WCI  17
GWINNER        CLOUDY    30  28  93 N5        29.80R
ROLLA          MOCLDY    25  25 100 NW14      29.80R WCI  13
 ***** THE ABOVE OBSERVATIONS ARE NON NWS ARE NOT QUALITY
       CONTROLLED AND MAY MIS-REPORT RAIN FOR SNOW...
$$

  *****  WEATHER ACROSS NORTHERN MINNESOTA  *****

CITY           SKY/WX    TMP DP  RH WIND       PRES   REMARKS
FLAG ISLAND    CLOUDY    28  23  80 NW7       29.71R WCI  21
WARROAD        CLOUDY    28  23  80 NW9       29.75R WCI  20
ROSEAU         CLOUDY    28  21  74 NW9       29.75R WCI  20
HALLOCK        CLOUDY    28  25  86 NW12      29.79R WCI  18
THF RVR FALLS  CLOUDY    27  21  80 NW9       29.77R WCI  17
BAUDETTE       CLOUDY    28  22  78 NW8       29.71R WCI  20
WASKISH        CLOUDY    28  25  86 W3        29.73R
CROOKSTON      CLOUDY    28  21  74 N13       29.80R WCI  18
STEPHEN NDAWN    N/A     27  23  86 N12         N/A  WCI  16
GREENBUSH NDAW   N/A     27  23  86 NW8         N/A  WCI  18
$$
  *****  WEATHER ACROSS CENTRAL AND WEST MINNESOTA  *****

CITY           SKY/WX    TMP DP  RH WIND       PRES   REMARKS
FOSSTON        CLOUDY    27  23  86 W9        29.76R WCI  17
BEMIDJI        CLOUDY    29  25  85 NW9       29.73R WCI  20
PARK RAPIDS    CLOUDY    31  22  69 NW8       29.72R WCI  23
ELBOW LAKE     CLOUDY    28  26  89 N8        29.75S WCI  20
WADENA         CLOUDY    28  25  86 N6        29.74R WCI  22
DETROIT LAKES  CLOUDY    28  28 100 NW10      29.76R WCI  19
MOORHEAD       CLOUDY    30  28  93 NW10      29.80R WCI  21
FERGUS FALLS   CLOUDY    28  25  86 N8        29.79S WCI  20
MORRIS MN      CLOUDY    28  27  93 N12       29.74S WCI  18
STAPLES        CLOUDY    28  25  86 N6        29.74R WCI  22
$$
  *****  WEATHER ELSEWHERE ACROSS MINNESOTA  *****

CITY           SKY/WX    TMP DP  RH WIND       PRES   REMARKS
DULUTH         CLOUDY    32  26  78 W13       29.70R WCI  22
INTRNTL FALLS  CLOUDY    31  25  78 W12       29.69R WCI  22
ELY            CLOUDY    30  27  86 W6        29.68R WCI  24
CLOQUET        CLOUDY    32  27  80 W5        29.72R
WHEATON        CLOUDY    27  25  93 N12G17    29.80R WCI  16
BRAINERD       CLOUDY    32  27  81 NW6       29.73R
HIBBING        CLOUDY    32  24  72 NW7       29.70R
ALEXANDRIA     CLOUDY    30  27  88 N8        29.73R WCI  22
SAINT CLOUD    CLOUDY    35  29  78 S3        29.74R
MINNEAPOLIS    CLOUDY    35  28  75 S3        29.76R
$$

  *****  WEATHER ACROSS SOUTH DAKOTA  *****

CITY           SKY/WX    TMP DP  RH WIND       PRES   REMARKS
SIOUX FALLS    CLOUDY    35  29  78 NE17      29.65S WCI  25
BROOKINGS      NOT AVBL
WATERTOWN      LGT SNOW  31  27  85 NE8       29.71R FOG     WCI  23
HURON          CLOUDY    29  25  85 N16       29.73R FOG     WCI  17
SISSETON         N/A     27  25  92 N14       29.76R WCI  16
ABERDEEN       CLOUDY    30  24  78 N17       29.78R WCI  18
MITCHELL       CLOUDY    33  31  92 N16       29.68S WCI  23
PIERRE         CLOUDY    30  27  88 N18       29.74R WCI  18
MOBRIDGE       CLOUDY    30  25  81 N12       29.76S WCI  20
RAPID CITY     LGT SNOW  26  23  88 N21       29.74S VSB 3/4 WCI  12
$$

  *****  SOME WEATHER IN NEARBY STATES *****

CITY           SKY/WX    TMP DP  RH WIND       PRES   REMARKS
GLASGOW MT     CLOUDY    24  16  71 NW14      29.93R WCI  12
GREAT FALLS MT CLOUDY    24  21  88 W3        29.92F
CHEYENNE WY    LGT SNOW  26  22  84 NE9       29.52R FOG     WCI  17
SCOTTSBLUFF NE SNOW      29  26  89 NE12      29.60R VSB 1/2 WCI  19
OMAHA NE       MOSUNNY   48  31  51 S18G28    29.60F
DES MOINES IA  MOSUNNY   49  32  52 S17       29.72F
DAVENPORT IA   PTSUNNY   45  31  58 S17       29.87F
CHICAGO IL     PTSUNNY   41  31  67 S14       29.95R
EAU CLAIRE WI  CLOUDY    33  28  81 S3        29.78R
LA CROSSE WI   PTSUNNY   39  30  70 S8        29.80S
$$

  *****  SOME NATIONAL WEATHER *****

CITY           SKY/WX    TMP DP  RH WIND       PRES   REMARKS
LA GUARDIA NY  PTSUNNY   51  28  41 W23G31    29.86R
RALEIGH NC     SUNNY     56  32  40 VRB6      30.09R
ATLANTA GA     SUNNY     51  34  52 W8        30.16F
NEW ORLEANS LA MOSUNNY   57  37  47 NE7       30.23F
OKLAHOMA CITY  CLOUDY    59  25  27 S29G39    29.75F
ALBUQUERQUE NM MOSUNNY   49  12  22 SW9       29.64F
SALT LAKE CITY SNOW      29  26  89 W12       29.68R VSB 1/2 WCI  19
LOS ANGELES CA MOSUNNY   62  24  23 N17G26    29.85F
BOISE ID       SUNNY     35  25  66 NW24      29.91S WCI  23
SEATTLE WA     PTSUNNY   45  37  76 SW6       30.20F
$$

*** WEATHER ACROSS MANITOBA...SASKATCHEWAN AND ONTARIO ***
                ***ONTARIO***

CITY           SKY/WX    TMP DP  RH WIND       PRES   REMARKS
GERALDTON      CLOUDY    28  25  86 W6        29.61R WCI  22
THUNDER BAY    CLOUDY    36  30  80 W6        29.67R
SIOUX LOOKOUT  FLURRIES  30  27  86 W6        29.62  WCI  24
TORONTO        PTSUNNY   39  30  70 W21G28    29.87R
BIG TROUT LK   FLURRIES  21  21 100 W5        29.60R WCI  15
PICKLE LAKE    FLURRIES  28  25  86 CALM      29.57R
DRYDEN         CLOUDY    28  27  93 W10G20    29.64R WCI  19
KENORA         FLURRIES  27  25  93 NW8       29.67R WCI  18
$$
                *** MANITOBA***

CITY           SKY/WX    TMP DP  RH WIND       PRES   REMARKS
BRANDON        CLOUDY    25  21  86 NW9       29.82R WCI  15
DAUPHIN        FLURRIES  23  18  80 W15       29.86R WCI  10
ISLAND LAKE    FLURRIES  19  18  93 NW7       29.70  WCI  10
PILOT MOUND      N/A     23  19  86 NW14        N/A  WCI  11
THE PAS        FLURRIES   7   3  85 NW17G23   29.89R WCI -12
THOMPSON       LGT SNOW  10   7  85 NW7       29.77  WCI   0
WINNIPEG       CLOUDY    27  23  86 NW15      29.79R WCI  15
CHURCHILL      LGT SNOW   5   3  92 NW16      29.78R VSB 1   WCI -14
GILLAM         FLURRIES  19  18  93 VRB2      29.70R
$$
                ***SASKATCHEWAN***

CITY           SKY/WX    TMP DP  RH WIND       PRES   REMARKS
ESTEVAN        FLURRIES  23  18  80 NW20      29.87R WCI   8
KINDERSLEY     CLOUDY     9   3  78 W8        29.98R WCI  -4
LLOYDMINSTER   CLOUDY     7   5  92 NW7       29.95S WCI  -5
PRINCE ALBERT  PTSUNNY   -2  -8  78 NW8       29.99R WCI -17
REGINA         FLURRIES  12   7  79 NW18      29.93R WCI  -5
YORKTON          N/A     18  14  86 NW14G22   29.86R WCI   4
N. BATTLEFORD  CLOUDY     3   0  85 N9        30.02R WCI -11
LA RONGE       FLURRIES  -2  -9  71 W14       30.00  WCI -21
SASKATOON      MOSUNNY    1  -6  71 NW10      30.02R WCI -14
SWIFT CURRENT  FLURRIES   5   3  92 NW20      29.91S WCI -15
$$
NOTE: THESE ARE AUTOMATED STATIONS WITH LIMITED QUALITY CONTROL
      "FAIR" INDICATES FEW OR NO CLOUDS BELOW 12,000 FEET WITH NO
      SIGNIFICANT WEATHER AND/OR OBSTRUCTIONS TO VISIBILITY.
      SKY/WX - SKY CONDITION AND SIGNIFICANT WEATHER.
      TMP - AIR TEMPERATURE.    DP   - DEWPOINT TEMPERATURE.
      RH  - RELATIVE HUMIDITY.  PRES - PRESSURE.
      HX  - HEAT INDEX.         WCI  - WIND CHILL INDEX.
$


USA.gov is the U.S. government's official web portal to all federal, state and local government web resources and services.